Satish Verma

Folder Contents

Author's Full Portfolio

Title Comments Views Updated Posted
1 Sending My Hymns 5 2021/12/06 23 hours ago
2 I Knelt In Flames 7 2021/12/05 1 day ago
3 Hyperaesthesia 1 15 2021/12/04 2 days ago
4 After Separations 13 2021/12/03 3 days ago
5 Incomplete Thoughts 1 8 2021/12/02 4 days ago
6 To Tell The Truth 1 19 2021/12/01 5 days ago
7 Bizarre Phenomenon 12 2021/11/30 6 days ago
8 Trapped 9 2021/11/30 6 days ago
9 Noises Of Stampede 11 2021/11/29 1 week ago
10 Laws Of Chemistry 1 19 2021/11/28 1 week ago
11 Love To Violence 12 2021/11/27 1 week ago
12 Prayer Starts 12 2021/11/26 1 week ago
13 After The Body 8 2021/11/24 1 week ago
14 Your Thoughts Live Around Me 1 21 2021/11/23 1 week ago
15 My Blood, My Bones 14 2021/11/22 2 weeks ago
16 Moon Slept In My Arms 1 20 2021/11/21 2 weeks ago
17 In Cross-Hairs 1 18 2021/11/20 2 weeks ago
18 Out Of Honey 21 2021/11/19 2 weeks ago
19 Ocean Sinks 20 2021/11/18 2 weeks ago
20 Looking At Past 16 2021/11/17 2 weeks ago
21 Not Heart Broken 16 2021/11/16 2 weeks ago
22 A Patriarch Maps 13 2021/11/15 3 weeks ago
23 By Sparks Stay Young 12 2021/11/14 3 weeks ago
24 Inheriting The Dust 22 2021/11/13 3 weeks ago
25 Death In Peace 2 24 2021/11/12 3 weeks ago
26 In Dragnet 12 2021/11/11 3 weeks ago
27 My Craft Trembles 15 2021/11/10 3 weeks ago
28 The Adored Angel 1 35 2021/11/08 4 weeks ago
29 Untold Story 15 2021/11/07 4 weeks ago
30 In Blue Darkness 20 2021/11/06 4 weeks ago
31 Will You Know? 1 25 2021/11/03 4 weeks ago
32 Inventory Of Pain 19 2021/11/03 4 weeks ago
33 Till Every Song 21 2021/11/02 4 weeks ago
34 To Mourn The Death Of Soul 26 2021/11/01 5 weeks ago
35 Felling A Tree 25 2021/10/31 5 weeks ago
36 Love And Revenge 1 28 2021/10/30 5 weeks ago
37 Anchor Buried In Clouds 18 2021/10/29 5 weeks ago
38 Walking In Twilight 23 2021/10/28 5 weeks ago
39 Hope Dies Daily 20 2021/10/27 5 weeks ago
40 Footprints On Sands 26 2021/10/26 5 weeks ago
41 Amaryllis Blooms 1 29 2021/10/25 6 weeks ago
42 Analysing Myself 1 29 2021/10/24 6 weeks ago
43 Beauty Of Truth 29 2021/10/23 6 weeks ago
44 Moonwhite Heart 1 25 2021/10/22 6 weeks ago
45 It Was Not Your Refusal 23 2021/10/21 6 weeks ago
46 Fire Game 31 2021/10/20 6 weeks ago
47 Chained Love 1 29 2021/10/19 6 weeks ago
48 Pink Bruises 28 2021/10/18 7 weeks ago
49 May Be 22 2021/10/16 7 weeks ago
50 Waning Moon 1 41 2021/10/15 7 weeks ago
51 Sea Will Drag Me 32 2021/10/14 7 weeks ago
52 There Was Ample Pain 43 2021/10/13 7 weeks ago
53 Equality 18 2021/10/12 7 weeks ago
54 Equality 33 2021/10/11 8 weeks ago
55 A Sea Of Moons 1 28 2021/10/10 8 weeks ago
56 Bee-Stings 1 37 2021/10/09 8 weeks ago
57 Lost In Thoughts 34 2021/10/07 8 weeks ago
58 In Order Of Being 31 2021/10/05 8 weeks ago
59 Smoking Guns 1 40 2021/10/04 9 weeks ago
60 Come To Me As You Are? 45 2021/10/03 9 weeks ago
61 Freak Happenings 36 2021/10/02 9 weeks ago
62 Character 39 2021/10/01 9 weeks ago
63 Dreamscapes 27 2021/09/30 9 weeks ago
64 I Think, I Don't Exist 37 2021/09/29 9 weeks ago
65 Reincarnation 1 45 2021/09/28 9 weeks ago
66 My Gifts 27 2021/09/27 10 weeks ago
67 Pure Like Flames 36 2021/09/25 10 weeks ago
68 Unseeking 38 2021/09/24 10 weeks ago
69 Reapers Are Here 42 2021/09/23 10 weeks ago
70 God It Kills 33 2021/09/22 10 weeks ago
71 Body Was Temple 32 2021/09/21 10 weeks ago
72 Divine Losses 31 2021/09/20 11 weeks ago
73 Winter Tales 29 2021/09/19 11 weeks ago
74 Don't Grieve For Me 32 2021/09/18 11 weeks ago
75 Pain Of Surrender 32 2021/09/16 11 weeks ago
76 A Renaissance 63 2021/09/15 11 weeks ago
77 Repeating Pain 46 2021/09/14 11 weeks ago
78 Deep Inside 41 2021/09/12 12 weeks ago
79 When Truth Was Exhumed 30 2021/09/12 12 weeks ago
80 How Much Certain You Were? 42 2021/09/11 12 weeks ago
81 How Much Certain You Were? 37 2021/09/10 12 weeks ago
82 In Cupped Lakes 26 2021/09/09 12 weeks ago
83 Saviour Was Sad 27 2021/09/08 12 weeks ago
84 Space Walk 36 2021/09/07 12 weeks ago
85 Where Will You Go? 32 2021/09/06 13 weeks ago
86 Dust Under Feet 48 2021/09/05 13 weeks ago
87 Priest Writes On Wall 41 2021/09/03 13 weeks ago
88 Deciphering 1 45 2021/09/02 13 weeks ago
89 We Will Not Come Back 37 2021/09/01 13 weeks ago
90 Over Your Dream 1 69 2021/08/31 13 weeks ago
91 Blood-Lipped Prayer 40 2021/08/30 14 weeks ago
92 No Complaints 38 2021/08/29 14 weeks ago
93 Between Whips And Tether 53 2021/08/28 14 weeks ago
94 Travesty Of Truth 53 2021/08/27 14 weeks ago
95 The Saga Of Breakup 48 2021/08/26 14 weeks ago
96 My Hymns 47 2021/08/25 14 weeks ago
97 Playing Chess 26 2021/08/24 14 weeks ago
98 The Trial 55 2021/08/23 15 weeks ago
99 Leaves Are Changing Colors 60 2021/08/22 15 weeks ago
100 Broken Bridges 30 2021/08/21 15 weeks ago
101 O Trinity 32 2021/08/20 15 weeks ago
102 Nonetheless 54 2021/08/19 15 weeks ago
103 Without Fear 39 2021/08/18 15 weeks ago
104 Tangerines Sing 31 2021/08/16 16 weeks ago
105 Touching Everywhere 33 2021/08/16 16 weeks ago
106 Taking Revenge 36 2021/08/15 16 weeks ago
107 I Was Lost 32 2021/08/13 16 weeks ago
108 Dogmatically 52 2021/08/12 16 weeks ago
109 Justice Pure 39 2021/08/11 16 weeks ago
110 Amnesia 47 2021/08/10 16 weeks ago
111 By Kisses 1 62 2021/08/09 17 weeks ago
112 The Entity 45 2021/08/08 17 weeks ago
113 Quartz 38 2021/08/07 17 weeks ago
114 The End Starts 44 2021/08/05 17 weeks ago
115 Echoes Travel 39 2021/08/04 17 weeks ago
116 Picking Relics 40 2021/08/03 17 weeks ago
117 The Voyager 1 52 2021/08/02 18 weeks ago
118 Itinerant 49 2021/08/01 18 weeks ago
119 I Remember 33 2021/07/30 18 weeks ago
120 I Am You Are 32 2021/07/29 18 weeks ago
121 Greek Thoughts 36 2021/07/27 18 weeks ago
122 Unseeing You 64 2021/07/26 19 weeks ago
123 The Man And God 37 2021/07/25 19 weeks ago
124 Savagery 57 2021/07/24 19 weeks ago
125 Waiting For Flames 1 40 2021/07/23 19 weeks ago
126 Deep Voices 69 2021/07/22 19 weeks ago
127 Jumping The Wall 39 2021/07/21 19 weeks ago
128 Beside The Truth 35 2021/07/20 19 weeks ago
129 Bifurcation 47 2021/07/18 20 weeks ago
130 In Deep Dark 51 2021/07/17 20 weeks ago
131 Humanized Pain 39 2021/07/16 20 weeks ago
132 Wearing The Crown Of Thorns 35 2021/07/15 20 weeks ago
133 Good Bye 31 2021/07/14 20 weeks ago
134 Unstable 42 2021/07/13 20 weeks ago
135 Not To Annihilate 34 2021/07/12 21 weeks ago
136 Virgin Defeat 53 2021/07/11 21 weeks ago
137 Strange Revelations 39 2021/07/10 21 weeks ago
138 The Pain Was Not You 31 2021/07/09 21 weeks ago
139 Art In Dying 41 2021/07/08 21 weeks ago
140 I Will Survive 37 2021/07/07 21 weeks ago
141 Nameless Agony 42 2021/07/06 21 weeks ago
142 Flagellation 38 2021/07/05 22 weeks ago
143 Repeat Sins 38 2021/07/05 22 weeks ago
144 Clear As Water 51 2021/07/04 22 weeks ago
145 Pencil Eyes 40 2021/07/04 22 weeks ago
146 Getting Solace 37 2021/07/02 22 weeks ago
147 When You Had Left 41 2021/07/01 22 weeks ago
148 Knowing Myself 42 2021/07/01 22 weeks ago
149 No Enemies 35 2021/06/30 22 weeks ago
150 Past Actions 33 2021/06/30 22 weeks ago
151 Another Harbinger 27 2021/06/26 23 weeks ago
152 Black Masks 29 2021/06/26 23 weeks ago
153 Falling Man 32 2021/06/25 23 weeks ago
154 Missing Words 31 2021/06/25 23 weeks ago
155 I Ask Nothing 39 2021/06/24 23 weeks ago
156 No One Survives 33 2021/06/24 23 weeks ago
157 Going Into Space 44 2021/06/23 23 weeks ago
158 The Essence 35 2021/06/23 23 weeks ago
159 Unsung 66 2021/06/22 23 weeks ago
160 Abrasions 61 2021/06/22 23 weeks ago
161 Celestial 35 2021/06/21 24 weeks ago
162 Divine Revelation 41 2021/06/21 24 weeks ago
163 Don't Touch The Black Sun 111 2021/06/20 24 weeks ago
164 Departing 41 2021/06/20 24 weeks ago
165 Parting 35 2021/06/19 24 weeks ago
166 Nothingness 52 2021/06/19 24 weeks ago
167 Not I Not You 54 2021/06/18 24 weeks ago
168 Avatar 42 2021/06/18 24 weeks ago
169 Absolute Being 43 2021/06/17 24 weeks ago
170 Deceiving Self 44 2021/06/17 24 weeks ago
171 Believing In Myths 34 2021/06/16 24 weeks ago
172 Where Do The Sprits Go? 36 2021/06/16 24 weeks ago
173 Searching Peace 38 2021/06/14 25 weeks ago
174 Holiest Dilemma 37 2021/06/14 25 weeks ago
175 The Crescent Moon 40 2021/06/13 25 weeks ago
176 Quiet Introspection 32 2021/06/13 25 weeks ago
177 Untraced 39 2021/06/12 25 weeks ago
178 Sisyphean Ambition 40 2021/06/12 25 weeks ago
179 Stalking The Spring 37 2021/06/11 25 weeks ago
180 Motionless 39 2021/06/11 25 weeks ago
181 Convulsions 42 2021/06/10 25 weeks ago
182 Real Me 57 2021/06/10 25 weeks ago
183 Convulsions 52 2021/06/09 25 weeks ago
184 Blood Prints 40 2021/06/09 25 weeks ago
185 Like Memes 56 2021/06/06 26 weeks ago
186 Seeking Peace 55 2021/06/06 26 weeks ago
187 Embracing Dark 39 2021/06/05 26 weeks ago
188 Whispering Clouds 37 2021/06/05 26 weeks ago
189 Into Dark Abyss 33 2021/06/04 26 weeks ago
190 Talking To Spirit 34 2021/06/04 26 weeks ago
191 Art In Pain 34 2021/06/03 26 weeks ago
192 Raw Dreams 36 2021/06/03 26 weeks ago
193 After You Left 34 2021/06/02 26 weeks ago
194 Naked Truths 37 2021/06/02 26 weeks ago
195 Searching My Voice 40 2021/06/01 26 weeks ago
196 Prayer's House 40 2021/06/01 26 weeks ago
197 Released 35 2021/05/31 27 weeks ago
198 Inheritance 32 2021/05/31 27 weeks ago
199 Prerogative 45 2021/05/30 27 weeks ago
200 Summer Solstice 45 2021/05/30 27 weeks ago
201 Fairy Dance 61 2021/05/29 27 weeks ago
202 Dark Circles 35 2021/05/29 27 weeks ago
203 Song Of The Sky 43 2021/05/28 27 weeks ago
204 Touch Me 59 2021/05/28 27 weeks ago
205 Vision And Vibrations 37 2021/05/27 27 weeks ago
206 Of All Time 39 2021/05/27 27 weeks ago
207 Don't Die 74 2021/05/26 27 weeks ago
208 Gospel Truth 68 2021/05/26 27 weeks ago
209 Predicament 39 2021/05/24 28 weeks ago
210 Learning You 33 2021/05/24 28 weeks ago
211 Trembling Vibes 38 2021/05/22 28 weeks ago
212 Thought To Thought 33 2021/05/22 28 weeks ago
213 Your Empathy 37 2021/05/21 28 weeks ago
214 The Madness 37 2021/05/21 28 weeks ago
215 Sad Protégé 55 2021/05/20 28 weeks ago
216 After Thoughts 49 2021/05/20 28 weeks ago
217 Catnaps 52 2021/05/19 28 weeks ago
218 Blue Sunstroke 56 2021/05/19 28 weeks ago
219 Empty Of Answers 48 2021/05/18 28 weeks ago
220 Were It You? 46 2021/05/18 28 weeks ago
221 Changing Name 82 2021/05/17 29 weeks ago
222 Multicast 58 2021/05/17 29 weeks ago
223 Changing Syntax 46 2021/05/16 29 weeks ago
224 No Regrets 49 2021/05/16 29 weeks ago
225 Incognito 49 2021/05/14 29 weeks ago
226 Unity 51 2021/05/14 29 weeks ago
227 Drifting 49 2021/05/13 29 weeks ago
228 Bruised Knees 45 2021/05/13 29 weeks ago
229 Awake, Arise 52 2021/05/12 29 weeks ago
230 Freezing Scream 56 2021/05/12 29 weeks ago
231 Hundred Stories 46 2021/05/11 29 weeks ago
232 A Summer's Stroke 56 2021/05/11 29 weeks ago
233 In My Orbit 44 2021/05/10 30 weeks ago
234 Asking Myself 44 2021/05/10 30 weeks ago
235 Mementos 57 2021/05/09 30 weeks ago
236 For Good And Evil 53 2021/05/09 30 weeks ago
237 No Dark Crime 51 2021/05/08 30 weeks ago
238 Penultimate 52 2021/05/08 30 weeks ago
239 Human Gifts 55 2021/05/07 30 weeks ago
240 Questioning You 53 2021/05/06 30 weeks ago
241 Who Wants Eternity 55 2021/05/06 30 weeks ago
242 Turns In Path 56 2021/05/05 30 weeks ago
243 Who Was Blessed 47 2021/05/05 30 weeks ago
244 Sphinx Was Watching 54 2021/05/04 30 weeks ago
245 Don't Forget 47 2021/05/03 31 weeks ago
246 Stranger In A Fix 52 2021/05/03 31 weeks ago
247 Cobra Night 64 2021/05/01 31 weeks ago
248 The Charity 65 2021/05/01 31 weeks ago
249 Myths Of Centuries 50 2021/04/30 31 weeks ago
250 What Was It? 56 2021/04/30 31 weeks ago
251 Imitation Of Supreme 43 2021/04/29 31 weeks ago
252 Visionary 43 2021/04/29 31 weeks ago
253 Launching Pad 56 2021/04/28 31 weeks ago
254 You Survive The Day 62 2021/04/28 31 weeks ago
255 Mythology 45 2021/04/27 31 weeks ago
256 Insignia 47 2021/04/26 32 weeks ago
257 Justice 44 2021/04/26 32 weeks ago
258 Silence And Stealth 39 2021/04/25 32 weeks ago
259 If The Road Doesn't End 52 2021/04/25 32 weeks ago
260 My Silver Bleeds 45 2021/04/24 32 weeks ago
261 You Will Not Know 48 2021/04/24 32 weeks ago
262 Rock Truth 49 2021/04/23 32 weeks ago
263 Triangles 55 2021/04/23 32 weeks ago
264 In Black Eyes 51 2021/04/21 32 weeks ago
265 Piercing Cry 44 2021/04/21 32 weeks ago
266 Hidden Voices 46 2021/04/21 32 weeks ago
267 Poem Sublime 44 2021/04/21 32 weeks ago
268 You Won't Return 61 2021/04/20 32 weeks ago
269 Beyond Infinity 55 2021/04/20 32 weeks ago
270 Searching Soul 44 2021/04/19 33 weeks ago
271 Playing With Marbles 43 2021/04/19 33 weeks ago
272 Golden Leash 42 2021/04/18 33 weeks ago
273 The Message 52 2021/04/18 33 weeks ago
274 Betrayal 48 2021/04/17 33 weeks ago
275 Inquisition 46 2021/04/17 33 weeks ago
276 Venomously 53 2021/04/16 33 weeks ago
277 Inquisition 48 2021/04/16 33 weeks ago
278 Like A Hermit 50 2021/04/15 33 weeks ago
279 Theories 48 2021/04/15 33 weeks ago
280 Deadbeat 59 2021/04/14 33 weeks ago
281 Hemlock 53 2021/04/14 33 weeks ago
282 Akin To Madness 54 2021/04/13 33 weeks ago
283 Blue Castles 59 2021/04/13 33 weeks ago
284 Touching Infinite 69 2021/04/12 34 weeks ago
285 Hanging Eyes 66 2021/04/12 34 weeks ago
286 Animating Fear 68 2021/04/11 34 weeks ago
287 Conflict Of Centuries 63 2021/04/11 34 weeks ago
288 I Am You 68 2021/04/10 34 weeks ago
289 Atonement 75 2021/04/10 34 weeks ago
290 Glorification 68 2021/04/09 34 weeks ago
291 All Is Forgiven 64 2021/04/09 34 weeks ago
292 Rethinking 61 2021/04/08 34 weeks ago
293 Blurred Landscape 59 2021/04/08 34 weeks ago
294 Pain And Endurance 1 74 2021/04/07 34 weeks ago
295 At The Beginning 74 2021/04/07 34 weeks ago
296 No Ambiguity 64 2021/04/06 34 weeks ago
297 Absolutely 65 2021/04/06 34 weeks ago
298 Failed 78 2021/04/04 35 weeks ago
299 For Fallen Deity 83 2021/04/04 35 weeks ago
300 History Of Pain 56 2021/04/03 35 weeks ago
301 Self-Sacrifice 54 2021/04/03 35 weeks ago
302 Deeper Meanings 89 2021/04/02 35 weeks ago
303 Candle Burns In Colors 73 2021/04/01 35 weeks ago
304 Not Parting 78 2021/04/01 35 weeks ago
305 Learning From Relics 53 2021/03/31 35 weeks ago
306 The Scorpio 49 2021/03/31 35 weeks ago
307 Participation 57 2021/03/27 36 weeks ago
308 Ephemeral 1 64 2021/03/27 36 weeks ago
309 Intersection 1 66 2021/03/26 36 weeks ago
310 Navigating You 51 2021/03/26 36 weeks ago
311 Compelling Charm 65 2021/03/25 36 weeks ago
312 You Smell Murder 62 2021/03/25 36 weeks ago
313 Travesty 51 2021/03/24 36 weeks ago
314 Becoming A Totem 1 57 2021/03/24 36 weeks ago
315 Empty Bowls 58 2021/03/23 36 weeks ago
316 In My Small Fists 48 2021/03/23 36 weeks ago
317 Graceful 46 2021/03/21 37 weeks ago
318 Common Thoughts 44 2021/03/21 37 weeks ago
319 Unthinkable 44 2021/03/20 37 weeks ago
320 Show Me The Path 55 2021/03/20 37 weeks ago
321 Ask Me 50 2021/03/19 37 weeks ago
322 Talking To A Phantom 51 2021/03/19 37 weeks ago
323 New Sports 61 2021/03/18 37 weeks ago
324 Unmaking Love 50 2021/03/18 37 weeks ago
325 Vultures Sitting Silently 49 2021/03/17 37 weeks ago
326 Wisdom Fails 54 2021/03/17 37 weeks ago
327 Back And Forth 58 2021/03/16 37 weeks ago
328 With Soft Feeling 56 2021/03/16 37 weeks ago
329 Stopped Thinking 48 2021/03/15 38 weeks ago
330 Unwritten Grief 50 2021/03/15 38 weeks ago
331 In Trance 53 2021/03/14 38 weeks ago
332 Ununderstood 57 2021/03/14 38 weeks ago
333 Pale Red Dots 71 2021/03/13 38 weeks ago
334 Without Dresses 68 2021/03/13 38 weeks ago
335 At Dusk 60 2021/03/12 38 weeks ago
336 Dying To Understand 66 2021/03/12 38 weeks ago
337 Sunglasses Break 59 2021/03/11 38 weeks ago
338 New Arrival 59 2021/03/11 38 weeks ago
339 Uplifting 69 2021/03/10 38 weeks ago
340 Overwritten 72 2021/03/10 38 weeks ago
341 Resuscitation? 75 2021/03/09 38 weeks ago
342 Soiled Contents 58 2021/03/09 38 weeks ago
343 Condemned To Live 70 2021/03/08 39 weeks ago
344 Out There 60 2021/03/08 39 weeks ago
345 Poetry Of Dreams 1 70 2021/03/07 39 weeks ago
346 Waking The Danger 57 2021/03/07 39 weeks ago
347 Freezing In Sun 64 2021/03/06 39 weeks ago
348 In Surrealism 57 2021/03/06 39 weeks ago
349 Be Alone 61 2021/03/05 39 weeks ago
350 Time Stops Me 58 2021/03/05 39 weeks ago
351 Opens Like Heart 61 2021/03/04 39 weeks ago
352 The Challengers 63 2021/03/04 39 weeks ago
353 When Iris Sleeps 64 2021/03/03 39 weeks ago
354 What Price? 62 2021/03/03 39 weeks ago
355 Cleaved Love 60 2021/03/02 39 weeks ago
356 Shedding Skin 65 2021/03/02 39 weeks ago
357 Take Heart 75 2021/03/01 40 weeks ago
358 Now You Are Old 74 2021/03/01 40 weeks ago
359 Unwritten 74 2021/02/28 40 weeks ago
360 Walking Away 78 2021/02/28 40 weeks ago
361 Burnt-Out 51 2021/02/27 40 weeks ago
362 Crying Silently 52 2021/02/27 40 weeks ago
363 Delicate Maturity 53 2021/02/26 40 weeks ago
364 Eclipsing 56 2021/02/26 40 weeks ago
365 After Separation 50 2021/02/25 40 weeks ago
366 Strange Phenomena 60 2021/02/25 40 weeks ago
367 Grieving 53 2021/02/24 40 weeks ago
368 On Reverse Trail 68 2021/02/24 40 weeks ago
369 Like Angels 55 2021/02/21 41 weeks ago
370 Metaphysically 53 2021/02/21 41 weeks ago
371 Flute Was Quiet 59 2021/02/20 41 weeks ago
372 Breaking In Piece Meals 59 2021/02/20 41 weeks ago
373 Dumb Dolls 49 2021/02/19 41 weeks ago
374 All You Know 52 2021/02/19 41 weeks ago
375 Asking No Mercy 1 71 2021/02/18 41 weeks ago
376 Existential 2 74 2021/02/18 41 weeks ago
377 We The Possessed 60 2021/02/17 41 weeks ago
378 Just Drop 58 2021/02/17 41 weeks ago
379 Searching Answers 66 2021/02/16 41 weeks ago
380 Unreachable 71 2021/02/16 41 weeks ago
381 Agony And Other Things 75 2021/02/15 42 weeks ago
382 You Are Seen Everywhere 68 2021/02/15 42 weeks ago
383 Help Me 75 2021/02/13 42 weeks ago
384 Nostalgic Return 72 2021/02/13 42 weeks ago
385 Heart Searching 73 2021/02/12 42 weeks ago
386 In My Play 75 2021/02/12 42 weeks ago
387 My Commitment 77 2021/02/11 42 weeks ago
388 Sea Salt 71 2021/02/11 42 weeks ago
389 Increasing Angst 1 72 2021/02/10 42 weeks ago
390 Pushing Dark 83 2021/02/10 42 weeks ago
391 I Will Speak 70 2021/02/09 42 weeks ago
392 Handshaking 59 2021/02/09 42 weeks ago
393 Flutey Silence 77 2021/02/08 43 weeks ago
394 Fugitive 1 87 2021/02/08 43 weeks ago
395 Path Taken 93 2021/02/06 43 weeks ago
396 So Shall Be 91 2021/02/06 43 weeks ago
397 The Power To Burn 67 2021/02/04 43 weeks ago
398 In Disquietude 75 2021/02/04 43 weeks ago
399 The Poem Before Meaning 1 79 2021/02/03 43 weeks ago
400 Elusive Peace 79 2021/02/03 43 weeks ago
401 Blue Lights 76 2021/02/02 43 weeks ago
402 Gifted Hands 81 2021/02/02 43 weeks ago
403 A Pinch Of Salt 90 2021/02/01 44 weeks ago
404 Becoming Yourself 101 2021/02/01 44 weeks ago
405 The Myth Of Truths 65 2021/01/31 44 weeks ago
406 Sacred Horse 66 2021/01/31 44 weeks ago
407 Take Back Your Swallows 63 2021/01/30 44 weeks ago
408 What You Were Not 58 2021/01/30 44 weeks ago
409 Want To Think? 69 2021/01/28 44 weeks ago
410 Maturity 58 2021/01/28 44 weeks ago
411 Ephemeral Wings 103 2021/01/27 44 weeks ago
412 When The Rains Stop 79 2021/01/27 44 weeks ago
413 Fall In November 49 2021/01/26 44 weeks ago
414 In Dustbath 54 2021/01/26 44 weeks ago
415 Who Was Creator? 59 2021/01/25 45 weeks ago
416 Most Gifted 69 2021/01/25 45 weeks ago
417 Hope And Despair 1 56 2021/01/24 45 weeks ago
418 Out Of Question 58 2021/01/24 45 weeks ago
419 This Panorama 56 2021/01/23 45 weeks ago
420 Ash On Roses 54 2021/01/23 45 weeks ago
421 Not In Wake 55 2021/01/22 45 weeks ago
422 Lost Tribe 82 2021/01/22 45 weeks ago
423 Caretaker 66 2021/01/21 45 weeks ago
424 Every Moment 58 2021/01/21 45 weeks ago
425 Divider 61 2021/01/20 45 weeks ago
426 Camouflaging 57 2021/01/20 45 weeks ago
427 Crucifixion 54 2021/01/19 45 weeks ago
428 Supernatural 57 2021/01/19 45 weeks ago
429 Greek Tragedy 68 2021/01/18 46 weeks ago
430 Defining Equation 81 2021/01/18 46 weeks ago
431 The Ascetic Grieves 60 2021/01/17 46 weeks ago
432 Sacred Steps 70 2021/01/17 46 weeks ago
433 Trekking 1 105 2021/01/16 46 weeks ago
434 Form And Muscles 85 2021/01/16 46 weeks ago
435 Embittered 1 83 2021/01/15 46 weeks ago
436 End Of Suffering 89 2021/01/15 46 weeks ago
437 Repeat Dilemma 1 63 2021/01/14 46 weeks ago
438 Recreation 77 2021/01/14 46 weeks ago
439 Small Pains 1 62 2021/01/13 46 weeks ago
440 Impeccable 60 2021/01/13 46 weeks ago
441 Whom To Sing 59 2021/01/12 46 weeks ago
442 Sorting Again 78 2021/01/12 46 weeks ago
443 Ruminating 70 2021/01/11 47 weeks ago
444 Not Any Acrimony 65 2021/01/11 47 weeks ago
445 Under The Bodhi Tree 85 2021/01/10 47 weeks ago
446 What You Didn't Say 80 2021/01/10 47 weeks ago
447 Water's Face 60 2021/01/09 47 weeks ago
448 A Paroxysm 68 2021/01/09 47 weeks ago
449 Don't Kill The Moonlight 69 2021/01/07 47 weeks ago
450 Strange Pictures 70 2021/01/07 47 weeks ago
451 Fear Of Losing Someone 72 2021/01/06 47 weeks ago
452 No 72 2021/01/06 47 weeks ago
453 Meditating Again 1 84 2021/01/05 47 weeks ago
454 Glinting 74 2021/01/05 47 weeks ago
455 Ignorance? 1 105 2021/01/04 48 weeks ago
456 Opening A Wound 96 2021/01/04 48 weeks ago
457 Strange Rivalry 78 2021/01/03 48 weeks ago
458 Unmasking 87 2021/01/03 48 weeks ago
459 Honor On Sale 83 2021/01/02 48 weeks ago
460 I Am Not One 75 2021/01/02 48 weeks ago
461 Half-Blues 78 2021/01/01 48 weeks ago
462 Earthly Claims 1 77 2021/01/01 48 weeks ago
463 A Beautiful Song 65 2020/12/31 48 weeks ago
464 Hope In Undoing 62 2020/12/31 48 weeks ago
465 Living With Grace 63 2020/12/30 48 weeks ago
466 Ancient Landscape 61 2020/12/30 48 weeks ago
467 With No Anger 63 2020/12/29 48 weeks ago
468 Like Hurricane 57 2020/12/29 48 weeks ago
469 Incredible 66 2020/12/28 49 weeks ago
470 In Full Moon 63 2020/12/28 49 weeks ago
471 Revelation In Dark 83 2020/12/27 49 weeks ago
472 Microevolution 73 2020/12/27 49 weeks ago
473 Drunk Like A Bee 60 2020/12/26 49 weeks ago
474 Unwritten Affair 62 2020/12/26 49 weeks ago
475 Sleep On Stones 77 2020/12/25 49 weeks ago
476 Strange Encounters 66 2020/12/25 49 weeks ago
477 Any Ambiguity? 81 2020/12/24 49 weeks ago
478 Think Again 65 2020/12/24 49 weeks ago
479 Passage Of Pain 77 2020/12/23 49 weeks ago
480 Sell The Mocking Birds 68 2020/12/23 49 weeks ago
481 Your Domain 54 2020/12/17 50 weeks ago
482 No Epilogue 66 2020/12/17 50 weeks ago
483 Sunlight Cheats 73 2020/12/16 50 weeks ago
484 In Autumn 66 2020/12/16 50 weeks ago
485 Myths Of Ariel 62 2020/12/15 50 weeks ago
486 Soundless Words 65 2020/12/15 50 weeks ago
487 Why Godheads 70 2020/12/14 51 weeks ago
488 Don't Tell The Truth 94 2020/12/13 51 weeks ago
489 Did I Ask More? 96 2020/12/13 51 weeks ago
490 Wounded Doves 80 2020/12/12 51 weeks ago
491 Crossing Death Zone 1 86 2020/12/12 51 weeks ago
492 Lies Were Very Cruel 67 2020/12/11 51 weeks ago
493 Giving Up Oaths 82 2020/12/11 51 weeks ago
494 Picking Strange Thoughts 72 2020/12/10 51 weeks ago
495 At The End Of Game 83 2020/12/10 51 weeks ago
496 Clear The Decks 79 2020/12/09 51 weeks ago
497 Miracles Happen 85 2020/12/09 51 weeks ago
498 The Solemn Pledge 69 2020/12/08 51 weeks ago
499 Becoming A Legend 75 2020/12/08 51 weeks ago
500 I Want You 76 2020/12/06 1 year ago